Copper Mountain, CO

12:28 AM MDT on April 24, 2017 (GMT -0600)
Copper Mountain

Weather History for KCCU - April, 2013

Change the Weather History Date:

Saturday, April 20, 2013

  Actual Average Record
Temperature  
Mean Temperature 26 °F -  
Max Temperature 33 °F - 44 °F (2014)
Min Temperature 19 °F - 12 °F (2002)
Degree Days  
Heating Degree Days 39    
Month to date heating degree days  
Cooling Degree Days 0    
Month to date cooling degree days  
Moisture  
Dew Point 19 °F    
Average Humidity 78    
Maximum Humidity 86    
Minimum Humidity 60    
Precipitation  
Precipitation 0.00 in - 0.30 in (2014)
Sea Level Pressure  
Sea Level Pressure 30.06 in    
Wind  
Wind Speed 16 mph (West)    
Max Wind Speed 31 mph    
Max Gust Speed 32 mph    
Visibility 3 miles    
Events Snow    
T = Trace of Precipitation, MM = Missing Value Source: NWS Daily Summary

Daily Weather History Graph

Daily Weather History Graph

Search for Another Location

Airport or City:

Trip Planner

Search our weather history database for the weather conditions in past years. The results will help you decide how hot, cold, wet, or windy it might be!

Date:

Astronomy

Apr. 20, 2013 Rise Set
Actual Time 6:19 AM MDT 7:47 PM MDT
Civil Twilight 5:51 AM MDT 8:15 PM MDT
Nautical Twilight 5:17 AM MDT 8:49 PM MDT
Astronomical Twilight 4:42 AM MDT 9:25 PM MDT
Moon 2:35 PM MDT (4/20) 3:09 AM MDT (4/20)
Length of Visible Light 14h 24m
Length of Day
13h 27m
Waxing Gibbous, 71% of the Moon is Illuminated
Apr 20
Waxing Gibbous
Apr 25
Full
May 2
Last Quarter
May 9
New
May 17
First Quarter

Hourly Weather History & Observations

Time (MDT) Temp. Windchill Dew Point Humidity Pressure Visibility Wind Dir Wind Speed Gust Speed Precip Events Conditions
12:32 AM 19.4 °F 8.6 °F 14.0 °F 80% 30.05 in 2.0 mi WSW 9.2 mph 17.3 mph N/A Snow Light Snow
12:52 AM 19.4 °F 6.6 °F 14.0 °F 80% 30.05 in 2.5 mi WSW 12.7 mph 18.4 mph N/A Snow Light Snow
1:12 AM 19.4 °F 5.5 °F 14.0 °F 80% 30.05 in 3.0 mi WSW 15.0 mph 19.6 mph N/A Snow Light Snow
1:32 AM 21.2 °F 7.3 °F 14.0 °F 74% 30.04 in 1.5 mi WSW 16.1 mph 20.7 mph N/A Snow Light Snow
1:52 AM 23.0 °F 8.0 °F 15.8 °F 74% 30.02 in 1.0 mi WSW 20.7 mph 29.9 mph N/A Snow Light Snow
2:12 AM 23.0 °F 9.2 °F 17.6 °F 80% 30.03 in 1.2 mi West 17.3 mph 24.2 mph N/A Snow Light Snow
2:32 AM 23.0 °F 11.7 °F 17.6 °F 80% 30.02 in 1.2 mi West 11.5 mph 19.6 mph N/A Snow Light Snow
2:52 AM 21.2 °F 10.1 °F 15.8 °F 80% 30.02 in 1.2 mi West 10.4 mph 17.3 mph N/A Snow Light Snow
3:12 AM 21.2 °F 7.8 °F 15.8 °F 80% 30.01 in 1.2 mi West 15.0 mph 19.6 mph N/A Snow Light Snow
3:32 AM 21.2 °F 8.3 °F 15.8 °F 80% 30.01 in 1.5 mi West 13.8 mph 20.7 mph N/A Snow Light Snow
3:52 AM 21.2 °F 8.3 °F 17.6 °F 86% 30.01 in 1.0 mi West 13.8 mph - N/A Snow Light Snow
4:12 AM 23.0 °F - 17.6 °F 80% 30.00 in 3.0 mi North - - N/A Snow Light Snow
4:32 AM 23.0 °F 10.6 °F 17.6 °F 80% 30.00 in 1.8 mi West 13.8 mph - N/A Snow Light Snow
4:52 AM 23.0 °F 9.6 °F 17.6 °F 80% 29.99 in 1.8 mi West 16.1 mph - N/A Snow Light Snow
5:12 AM 23.0 °F 10.1 °F 17.6 °F 80% 30.00 in 2.0 mi West 15.0 mph - N/A Snow Light Snow
5:32 AM 23.0 °F - 17.6 °F 80% 30.00 in 2.0 mi North - - N/A Snow Light Snow
5:52 AM 23.0 °F 7.6 °F 17.6 °F 80% 29.99 in 2.5 mi West 21.9 mph - N/A Snow Light Snow
6:12 AM 23.0 °F 8.0 °F 17.6 °F 80% 30.00 in 1.8 mi West 20.7 mph - N/A Snow Light Snow
6:32 AM 23.0 °F 9.2 °F 17.6 °F 80% 30.00 in 1.0 mi West 17.3 mph - N/A Snow Light Snow
6:52 AM 23.0 °F 10.1 °F 17.6 °F 80% 30.01 in 5.0 mi West 15.0 mph - N/A Snow Light Snow
7:12 AM 23.0 °F - 17.6 °F 80% 30.01 in 0.8 mi North - - N/A Snow Light Snow
7:32 AM 23.0 °F 11.7 °F 17.6 °F 80% 30.01 in 2.5 mi West 11.5 mph - N/A Snow Light Snow
7:52 AM 23.0 °F 9.6 °F 17.6 °F 80% 30.01 in 2.0 mi West 16.1 mph - N/A Snow Light Snow
8:12 AM 23.0 °F 11.1 °F 17.6 °F 80% 30.02 in 1.2 mi West 12.7 mph - N/A Snow Light Snow
8:32 AM 23.0 °F 10.1 °F 17.6 °F 80% 30.02 in 1.0 mi West 15.0 mph - N/A Snow Light Snow
8:52 AM 23.0 °F 11.7 °F 17.6 °F 80% 30.02 in 1.2 mi West 11.5 mph - N/A Snow Light Snow
9:12 AM 24.8 °F 14.6 °F 19.4 °F 80% 30.03 in 1.2 mi West 10.4 mph - N/A Snow Light Snow
9:32 AM 24.8 °F 15.3 °F 19.4 °F 80% 30.03 in 1.2 mi West 9.2 mph - N/A Snow Light Snow
9:52 AM 24.8 °F 12.4 °F 19.4 °F 80% 30.03 in 1.8 mi West 15.0 mph - N/A Snow Light Snow
10:12 AM 24.8 °F 13.4 °F 19.4 °F 80% 30.05 in 0.2 mi West 12.7 mph 16.1 mph N/A Snow Snow
10:32 AM 24.8 °F 11.5 °F 19.4 °F 80% 30.05 in 0.2 mi WNW 17.3 mph - N/A Snow Snow
10:52 AM 24.8 °F 11.5 °F 19.4 °F 80% 30.05 in 0.5 mi West 17.3 mph - N/A Snow Light Snow
11:12 AM 26.6 °F 14.3 °F 19.4 °F 74% 30.05 in 0.2 mi West 16.1 mph 21.9 mph N/A Snow Snow
11:32 AM 26.6 °F 13.4 °F 21.2 °F 80% 30.05 in 0.2 mi West 18.4 mph - N/A Snow Snow
11:52 AM 28.4 °F 15.4 °F 23.0 °F 80% 30.05 in 0.2 mi West 19.6 mph - N/A Snow Snow
12:12 PM 26.6 °F 12.7 °F 21.2 °F 80% 30.05 in 1.0 mi West 20.7 mph 26.5 mph N/A Snow Light Snow
12:32 PM 26.6 °F 13.1 °F 21.2 °F 80% 30.05 in 3.0 mi West 19.6 mph 25.3 mph N/A Snow Light Snow
12:52 PM 26.6 °F 12.7 °F 21.2 °F 80% 30.05 in 7.0 mi West 20.7 mph - N/A   Overcast
1:12 PM 28.4 °F 15.8 °F 21.2 °F 74% 30.05 in 10.0 mi West 18.4 mph 24.2 mph N/A   Mostly Cloudy
1:32 PM 28.4 °F 15.8 °F 21.2 °F 74% 30.05 in 7.0 mi West 18.4 mph 24.2 mph N/A   Overcast
1:52 PM 28.4 °F 15.1 °F 21.2 °F 74% 30.05 in 7.0 mi WNW 20.7 mph - N/A   Overcast
2:12 PM 28.4 °F 16.2 °F 19.4 °F 69% 30.05 in 10.0 mi West 17.3 mph - N/A   Mostly Cloudy
2:32 PM 30.2 °F 20.2 °F 19.4 °F 64% 30.05 in 10.0 mi West 12.7 mph 24.2 mph N/A   Mostly Cloudy
2:52 PM 33.8 °F 24.3 °F 23.0 °F 65% 30.05 in 10.0 mi WNW 13.8 mph 20.7 mph N/A   Overcast
3:12 PM 30.2 °F 18.1 °F 17.6 °F 60% 30.05 in 5.0 mi West 18.4 mph 28.8 mph N/A   Haze
3:32 PM 28.4 °F 15.4 °F 19.4 °F 69% 30.05 in 3.0 mi West 19.6 mph 24.2 mph N/A Snow Light Snow
3:52 PM 28.4 °F 14.7 °F 19.4 °F 69% 30.05 in 2.5 mi West 21.9 mph 27.6 mph N/A Snow Light Snow
4:12 PM 30.2 °F 17.1 °F 21.2 °F 69% 30.05 in 0.8 mi West 21.9 mph 28.8 mph N/A Snow Light Snow
4:32 PM 28.4 °F 14.7 °F 21.2 °F 74% 30.05 in 10.0 mi WNW 21.9 mph 27.6 mph N/A   Mostly Cloudy
4:52 PM 28.4 °F 14.4 °F 21.2 °F 74% 30.06 in 1.5 mi West 23.0 mph - N/A Snow Light Snow
5:12 PM 28.4 °F 14.7 °F 21.2 °F 74% 30.06 in 10.0 mi West 21.9 mph 25.3 mph N/A   Overcast
5:32 PM 28.4 °F 16.6 °F 21.2 °F 74% 30.07 in 10.0 mi West 16.1 mph - N/A   Overcast
5:52 PM 28.4 °F 15.4 °F 21.2 °F 74% 30.07 in 3.0 mi West 19.6 mph 26.5 mph N/A Snow Light Snow
6:12 PM 26.6 °F - 21.2 °F 80% 30.07 in 0.2 mi North - - N/A Snow Light Snow
6:32 PM 28.4 °F - 23.0 °F 80% 30.08 in 0.2 mi North - - N/A Snow Light Snow
6:52 PM 26.6 °F 12.7 °F 21.2 °F 80% 30.08 in 0.2 mi West 20.7 mph 25.3 mph N/A Snow Light Snow
7:12 PM 26.6 °F 10.0 °F 21.2 °F 80% 30.08 in 0.2 mi West 31.1 mph - N/A Snow Heavy Snow
7:32 PM 24.8 °F 14.0 °F 19.4 °F 80% 30.10 in 10.0 mi WSW 11.5 mph 25.3 mph N/A   Mostly Cloudy
7:52 PM 26.6 °F 16.8 °F 21.2 °F 80% 30.11 in 2.0 mi West 10.4 mph - N/A Snow Light Snow
8:12 PM 26.6 °F 19.1 °F 21.2 °F 80% 30.12 in 2.0 mi WSW 6.9 mph - N/A Snow Light Snow
8:32 PM 26.6 °F 11.7 °F 21.2 °F 80% 30.12 in 0.2 mi West 24.2 mph - N/A Snow Light Snow
8:52 PM 26.6 °F 11.1 °F 21.2 °F 80% 30.13 in 1.8 mi West 26.5 mph 32.2 mph N/A Snow Light Snow
9:12 PM 24.8 °F 9.0 °F 19.4 °F 80% 30.14 in 1.5 mi West 25.3 mph 31.1 mph N/A Snow Light Snow
9:32 PM 24.8 °F 9.3 °F 19.4 °F 80% 30.14 in 10.0 mi West 24.2 mph 28.8 mph N/A   Overcast
9:52 PM 24.8 °F 13.4 °F 19.4 °F 80% 30.15 in 10.0 mi West 12.7 mph - N/A   Overcast
10:12 PM 24.8 °F 10.7 °F 19.4 °F 80% 30.15 in 10.0 mi West 19.6 mph 25.3 mph N/A   Overcast
10:32 PM 24.8 °F 10.3 °F 19.4 °F 80% 30.15 in 4.0 mi West 20.7 mph - N/A Snow Light Snow
10:52 PM 24.8 °F 11.1 °F 19.4 °F 80% 30.15 in 10.0 mi West 18.4 mph 24.2 mph N/A   Overcast
11:12 PM 23.0 °F 10.6 °F 17.6 °F 80% 30.15 in 5.0 mi WSW 13.8 mph 19.6 mph N/A   Haze
11:32 PM 23.0 °F 9.6 °F 15.8 °F 74% 30.15 in 10.0 mi WSW 16.1 mph 24.2 mph N/A   Overcast
11:52 PM 23.0 °F 7.6 °F 17.6 °F 80% 30.15 in 1.2 mi West 21.9 mph 31.1 mph N/A Snow Light Snow